DF1NIF-13 Weather Reports


Display with metric or nautical units.
time (UTC)temp
F
wind
direction
speed
MPH
gust
MPH
rain 1hr
in
rain 24hr
in
rain mn
in
humidity
%
barometer
mb
20260905004428 61 271 0.0 1.0 0.00 0.00 0.00 65 970.7
20260905004013 61 262 0.0 1.0 0.00 0.00 0.00 66 970.5
20260905003548 61 262 1.0 3.0 0.00 0.00 0.00 66 970.6
20260905003123 61 262 0.0 0.0 0.00 0.00 0.00 66 970.3
20260905002659 61 262 1.0 3.0 0.00 0.00 0.00 66 970.4
20260905002258 61 262 0.0 3.0 0.00 0.00 0.00 66 970.3
20260905001843 61 237 0.0 3.0 0.00 0.00 0.00 66 970.0
20260905001402 61 215 0.0 3.0 0.00 0.00 0.00 66 970.3
20260905000933 61 216 1.0 3.0 0.00 0.00 0.00 66 970.2
20260905000458 61 216 1.0 3.0 0.00 0.00 0.00 66 970.4
20260905000023 61 345 1.0 1.0 0.00 0.00 0.00 66 970.3
20260904235551 61 345 0.0 5.0 0.00 0.00 0.00 66 970.3
20260904235128 61 345 4.0 7.0 0.00 0.00 0.00 71 970.4
20260904234708 63 353 10.0 11.0 0.00 0.00 0.00 71 970.3
20260904234233 65 329 7.0 7.0 0.00 0.00 0.00 71 970.2
20260904233819 65 348 3.0 5.0 0.00 0.00 0.00 71 969.9
20260904233408 65 352 7.0 14.0 0.00 0.00 0.00 71 969.9
20260904232938 65 352 8.0 11.0 0.00 0.00 0.00 71 970.2
20260904232459 65 0 8.0 20.0 0.00 0.00 0.00 71 970.1
20260904232033 65 0 8.0 14.0 0.00 0.00 0.00 71 970.2
20260904231613 65 0 10.0 9.0 0.00 0.00 0.00 71 969.9
20260904231143 65 346 10.0 9.0 0.00 0.00 0.00 71 970.0
20260904230708 65 310 10.0 9.0 0.00 0.00 0.00 71 969.6
20260904230233 65 310 10.0 16.0 0.00 0.00 0.00 69 969.9
20260904225753 66 310 10.0 25.0 0.00 0.00 0.00 69 970.1
20260904225333 66 310 6.0 25.0 0.00 0.00 0.00 69 970.0
20260904224853 66 359 7.0 18.0 0.00 0.00 0.00 69 969.9
20260904224433 66 359 11.0 18.0 0.00 0.00 0.00 70 969.8
20260904223953 66 327 9.0 22.0 0.00 0.00 0.00 64 969.5
20260904223503 67 338 9.0 14.0 0.00 0.00 0.00 64 969.7
20260904223028 67 338 15.0 49.0 0.00 0.00 0.00 64 969.9
20260904222603 67 338 13.0 22.0 0.00 0.00 0.00 64 969.7
20260904222123 67 338 13.0 14.0 0.00 0.00 0.00 64 969.6
20260904221648 70 330 10.0 18.0 0.00 0.00 0.00 64 969.6
20260904221218 70 0 10.0 29.0 0.00 0.00 0.00 64 969.4
20260904220758 70 0 27.0 49.0 0.00 0.00 0.00 64 968.8
20260904220353 70 359 19.0 36.0 0.00 0.00 0.00 64 968.8
20260904215938 70 343 10.0 27.0 0.00 0.00 0.00 64 968.7
20260904215504 71 312 10.0 25.0 0.00 0.00 0.00 64 968.6
20260904215103 76 354 10.0 36.0 0.00 0.00 0.00 59 968.0
20260904214603 76 319 10.0 31.0 0.00 0.00 0.00 56 968.0
20260904214113 76 319 10.0 25.0 0.00 0.00 0.00 56 967.2
20260904213634 76 319 10.0 23.0 0.00 0.00 0.00 56 967.2
20260904213158 76 319 7.0 22.0 0.00 0.00 0.00 56 967.0
20260904212729 76 306 12.0 18.0 0.00 0.00 0.00 56 967.1
20260904212243 76 306 12.0 23.0 0.00 0.00 0.00 56 966.9
20260904211818 76 341 11.0 20.0 0.00 0.00 0.00 56 967.0
20260904211348 75 341 11.0 20.0 0.00 0.00 0.00 56 967.0
20260904210918 75 341 7.0 18.0 0.00 0.00 0.00 56 966.7
20260904210443 75 341 15.0 20.0 0.00 0.00 0.00 56 966.7
20260904205953 75 341 3.0 13.0 0.00 0.00 0.00 56 967.1
20260904205518 75 341 3.0 11.0 0.00 0.00 0.00 56 967.1
20260904205048 75 341 6.0 9.0 0.00 0.00 0.00 56 966.7
20260904204608 75 300 5.0 9.0 0.00 0.00 0.00 56 966.9
20260904204148 75 253 4.0 5.0 0.00 0.00 0.00 56 966.6
20260904203708 75 253 4.0 11.0 0.00 0.00 0.00 56 966.9
20260904203248 75 130 6.0 11.0 0.00 0.00 0.00 56 966.8
20260904202838 75 270 0.0 11.0 0.00 0.00 0.00 56 966.8
20260904202403 75 270 2.0 5.0 0.00 0.00 0.00 56 966.9
20260904201943 75 339 1.0 5.0 0.00 0.00 0.00 56 966.6
20260904201518 75 339 1.0 5.0 0.00 0.00 0.00 56 966.5
20260904201049 75 339 3.0 3.0 0.00 0.00 0.00 56 966.6
20260904200638 75 339 3.0 5.0 0.00 0.00 0.00 56 966.7
20260904200203 75 339 3.0 11.0 0.00 0.00 0.00 56 966.5
20260904195738 75 339 3.0 7.0 0.00 0.00 0.00 56 966.7
20260904195328 75 339 3.0 9.0 0.00 0.00 0.00 56 966.5
20260904194853 75 339 5.0 7.0 0.00 0.00 0.00 56 966.3
20260904194418 75 339 5.0 3.0 0.00 0.00 0.00 56 966.6
20260904193953 75 339 5.0 5.0 0.00 0.00 0.00 56 966.5
20260904193518 75 339 5.0 7.0 0.00 0.00 0.00 56 966.3
20260904193058 74 251 1.0 7.0 0.00 0.00 0.00 52 966.4
20260904192612 74 133 2.0 7.0 0.00 0.00 0.00 52 966.5
20260904192119 74 133 0.0 3.0 0.00 0.00 0.00 52 966.2
20260904191643 74 133 5.0 3.0 0.00 0.00 0.00 52 966.5
20260904191218 75 133 2.0 3.0 0.00 0.00 0.00 52 966.3
20260904190727 75 133 2.0 0.0 0.00 0.00 0.00 52 966.3
20260904190253 75 133 2.0 1.0 0.00 0.00 0.00 52 966.3
20260904185843 75 24 2.0 1.0 0.00 0.00 0.00 52 966.3
20260904185423 75 24 2.0 3.0 0.00 0.00 0.00 52 966.3
20260904184938 75 24 0.0 0.0 0.00 0.00 0.00 52 966.2
20260904184458 75 24 0.0 1.0 0.00 0.00 0.00 52 966.3
20260904184039 77 24 1.0 1.0 0.00 0.00 0.00 52 966.4
20260904183558 77 0 0.0 0.0 0.00 0.00 0.00 52 966.1
20260904183123 77 0 3.0 0.0 0.00 0.00 0.00 52 966.2
20260904182708 77 251 2.0 3.0 0.00 0.00 0.00 52 966.0
20260904182213 77 259 0.0 3.0 0.00 0.00 0.00 52 966.2
20260904181748 77 259 1.0 5.0 0.00 0.00 0.00 52 965.9
20260904181313 77 259 2.0 3.0 0.00 0.00 0.00 52 966.0
20260904180843 77 259 2.0 3.0 0.00 0.00 0.00 52 965.8
20260904180413 77 259 2.0 9.0 0.00 0.00 0.00 52 965.9
20260904175943 77 259 0.0 3.0 0.00 0.00 0.00 52 966.0
20260904175502 79 290 1.0 1.0 0.00 0.00 0.00 52 965.8
20260904175038 79 290 1.0 3.0 0.00 0.00 0.00 49 965.8
20260904174558 79 290 4.0 7.0 0.00 0.00 0.00 49 965.8
20260904174118 79 290 5.0 7.0 0.00 0.00 0.00 49 965.6
20260904173653 79 290 0.0 7.0 0.00 0.00 0.00 49 965.9
20260904173233 79 290 0.0 5.0 0.00 0.00 0.00 49 965.8
20260904172813 79 166 5.0 13.0 0.00 0.00 0.00 49 966.0
20260904172333 79 166 4.0 13.0 0.00 0.00 0.00 49 965.9
20260904171908 79 166 4.0 9.0 0.00 0.00 0.00 49 965.8
20260904171443 79 253 3.0 11.0 0.00 0.00 0.00 45 966.0
20260904171028 80 253 3.0 11.0 0.00 0.00 0.00 45 966.1
20260904170553 80 274 3.0 18.0 0.00 0.00 0.00 45 965.9
20260904170108 80 337 7.0 7.0 0.00 0.00 0.00 45 966.1
20260904165639 80 334 1.0 7.0 0.00 0.00 0.00 45 966.2
20260904165158 80 257 2.0 9.0 0.00 0.00 0.00 45 966.0
20260904164723 80 257 7.0 9.0 0.00 0.00 0.00 45 966.1
20260904164253 80 301 7.0 7.0 0.00 0.00 0.00 45 966.4
20260904163809 80 301 5.0 14.0 0.00 0.00 0.00 45 966.3
20260904163327 80 301 5.0 9.0 0.00 0.00 0.00 45 966.2
20260904162838 80 301 2.0 14.0 0.00 0.00 0.00 45 966.2
20260904162353 80 301 2.0 14.0 0.00 0.00 0.00 45 966.3
20260904161928 82 292 2.0 20.0 0.00 0.00 0.00 45 966.4
20260904161453 82 333 2.0 14.0 0.00 0.00 0.00 45 965.9
20260904161038 82 333 4.0 14.0 0.00 0.00 0.00 45 966.3
20260904160543 82 137 4.0 9.0 0.00 0.00 0.00 45 966.1
20260904160113 82 117 4.0 16.0 0.00 0.00 0.00 45 966.1
20260904155633 82 117 18.0 25.0 0.00 0.00 0.00 45 966.1
20260904155158 82 316 8.0 13.0 0.00 0.00 0.00 45 966.1
20260904154711 82 350 6.0 9.0 0.00 0.00 0.00 43 966.1
20260904154228 82 292 6.0 22.0 0.00 0.00 0.00 43 965.9
20260904153813 82 281 4.0 14.0 0.00 0.00 0.00 43 966.0
20260904153323 82 281 13.0 22.0 0.00 0.00 0.00 44 965.9
20260904152824 82 84 8.0 22.0 0.00 0.00 0.00 44 966.0
20260904152418 81 84 12.0 11.0 0.00 0.00 0.00 44 966.1
20260904151953 81 7 11.0 13.0 0.00 0.00 0.00 44 965.8
20260904151513 81 337 7.0 25.0 0.00 0.00 0.00 44 965.7
20260904151103 81 161 11.0 16.0 0.00 0.00 0.00 44 966.1
20260904150633 81 351 7.0 16.0 0.00 0.00 0.00 44 966.0
20260904150218 83 241 8.0 13.0 0.00 0.00 0.00 44 966.0
20260904145738 82 241 7.0 9.0 0.00 0.00 0.00 44 966.1
20260904145309 82 2 7.0 27.0 0.00 0.00 0.00 44 965.9
20260904144843 82 186 3.0 11.0 0.00 0.00 0.00 44 966.0
20260904144411 82 103 8.0 20.0 0.00 0.00 0.00 44 966.2
20260904143928 82 56 14.0 7.0 0.00 0.00 0.00 44 966.2
20260904143448 82 314 9.0 7.0 0.00 0.00 0.00 44 966.2
20260904142958 82 326 5.0 7.0 0.00 0.00 0.00 44 966.3
20260904142528 81 326 4.0 25.0 0.00 0.00 0.00 44 966.5
20260904142113 81 313 5.0 22.0 0.00 0.00 0.00 44 966.5
20260904141648 81 139 5.0 25.0 0.00 0.00 0.00 44 966.5
20260904141208 81 139 1.0 14.0 0.00 0.00 0.00 45 966.6
20260904140738 81 304 16.0 9.0 0.00 0.00 0.00 49 966.7
20260904140313 81 182 16.0 16.0 0.00 0.00 0.00 49 966.7
20260904135828 81 302 16.0 16.0 0.00 0.00 0.00 49 966.9
20260904135353 82 68 4.0 9.0 0.00 0.00 0.00 49 967.0
20260904134933 82 187 1.0 9.0 0.00 0.00 0.00 49 966.9
20260904134508 80 238 6.0 33.0 0.00 0.00 0.00 49 966.9
20260904134108 80 238 10.0 33.0 0.00 0.00 0.00 49 967.2
20260904133623 79 175 10.0 18.0 0.00 0.00 0.00 49 967.1
20260904133203 80 305 5.0 18.0 0.00 0.00 0.00 47 967.0
20260904132733 80 105 7.0 18.0 0.00 0.00 0.00 47 967.1
20260904132258 81 340 5.0 16.0 0.00 0.00 0.00 48 967.1
20260904131759 81 182 7.0 14.0 0.00 0.00 0.00 47 967.2
20260904131333 80 332 7.0 20.0 0.00 0.00 0.00 47 967.2
20260904130853 80 303 4.0 20.0 0.00 0.00 0.00 47 967.1
20260904130443 80 231 5.0 14.0 0.00 0.00 0.00 47 967.2
20260904130028 79 234 9.0 25.0 0.00 0.00 0.00 48 967.4
20260904125608 79 291 14.0 16.0 0.00 0.00 0.00 49 967.4
20260904125133 80 344 14.0 27.0 0.00 0.00 0.00 50 967.5
20260904124639 80 308 14.0 22.0 0.00 0.00 0.00 50 967.7
20260904124218 79 319 7.0 14.0 0.00 0.00 0.00 50 967.6
20260904123743 79 110 7.0 22.0 0.00 0.00 0.00 50 968.0
20260904123318 78 110 11.0 29.0 0.00 0.00 0.00 50 968.1
20260904122858 78 318 11.0 16.0 0.00 0.00 0.00 50 968.2
20260904122428 80 322 11.0 20.0 0.00 0.00 0.00 50 968.5
20260904121953 78 317 4.0 5.0 0.00 0.00 0.00 50 968.3
20260904121525 78 331 4.0 18.0 0.00 0.00 0.00 50 968.5
20260904121118 78 331 4.0 16.0 0.00 0.00 0.00 52 968.5
20260904120638 77 304 6.0 5.0 0.00 0.00 0.00 52 968.5
20260904120148 78 125 6.0 25.0 0.00 0.00 0.00 52 968.7
20260904115728 78 125 6.0 20.0 0.00 0.00 0.00 55 968.6
20260904115308 77 257 9.0 23.0 0.00 0.00 0.00 55 968.6
20260904114903 77 257 7.0 13.0 0.00 0.00 0.00 55 968.6
20260904114413 78 257 10.0 14.0 0.00 0.00 0.00 55 968.9
20260904113958 78 257 9.0 31.0 0.00 0.00 0.00 55 968.8
20260904113533 76 283 9.0 9.0 0.00 0.00 0.00 55 968.9
20260904113038 76 251 9.0 22.0 0.00 0.00 0.00 55 968.9
20260904112619 76 288 14.0 31.0 0.00 0.00 0.00 58 968.8
20260904112158 76 327 5.0 14.0 0.00 0.00 0.00 58 968.9
20260904111718 77 343 5.0 20.0 0.00 0.00 0.00 58 968.9
20260904111243 76 343 5.0 3.0 0.00 0.00 0.00 58 969.0
20260904110758 76 343 9.0 13.0 0.00 0.00 0.00 58 969.2
20260904110333 76 178 9.0 9.0 0.00 0.00 0.00 58 969.2
20260904105848 75 95 5.0 16.0 0.00 0.00 0.00 58 969.2
20260904105413 75 111 14.0 11.0 0.00 0.00 0.00 58 969.1
20260904104933 76 111 3.0 11.0 0.00 0.00 0.00 58 969.2
20260904104518 76 127 9.0 25.0 0.00 0.00 0.00 58 969.3
20260904104033 76 197 9.0 11.0 0.00 0.00 0.00 58 969.3
20260904103628 76 146 9.0 14.0 0.00 0.00 0.00 62 969.1
20260904103153 75 146 3.0 11.0 0.00 0.00 0.00 62 969.2
20260904102728 74 343 3.0 14.0 0.00 0.00 0.00 62 969.6
20260904102253 74 343 5.0 18.0 0.00 0.00 0.00 62 969.6
20260904101823 74 337 10.0 14.0 0.00 0.00 0.00 62 969.5
20260904101343 74 156 7.0 22.0 0.00 0.00 0.00 63 969.7
20260904100923 72 137 5.0 22.0 0.00 0.00 0.00 63 969.8
20260904100458 72 175 6.0 18.0 0.00 0.00 0.00 66 969.8
20260904100028 72 315 5.0 20.0 0.00 0.00 0.00 66 970.1
20260904095548 73 308 7.0 14.0 0.00 0.00 0.00 66 970.1
20260904095113 73 308 10.0 16.0 0.00 0.00 0.00 67 970.1
20260904094643 73 330 6.0 22.0 0.00 0.00 0.00 67 970.2
20260904094208 74 330 4.0 9.0 0.00 0.00 0.00 67 970.0
20260904093733 71 330 4.0 13.0 0.00 0.00 0.00 67 970.5
20260904093303 71 39 9.0 23.0 0.00 0.00 0.00 67 970.3
20260904092838 71 292 9.0 20.0 0.00 0.00 0.00 67 970.5
20260904092353 72 292 9.0 20.0 0.00 0.00 0.00 67 970.5
20260904091933 72 292 5.0 22.0 0.00 0.00 0.00 69 970.5
20260904091523 69 147 5.0 14.0 0.00 0.00 0.00 69 970.6
20260904091103 69 318 2.0 18.0 0.00 0.00 0.00 69 970.8
20260904090633 69 351 9.0 11.0 0.00 0.00 0.00 75 970.8
20260904090208 69 10 9.0 16.0 0.00 0.00 0.00 75 970.7
20260904085713 69 249 4.0 9.0 0.00 0.00 0.00 75 970.8
20260904085308 69 161 2.0 9.0 0.00 0.00 0.00 75 970.7
20260904084843 68 161 5.0 9.0 0.00 0.00 0.00 75 970.9
20260904084358 68 198 3.0 3.0 0.00 0.00 0.00 75 970.9
20260904083948 68 143 2.0 14.0 0.00 0.00 0.00 75 971.1
20260904083528 68 175 2.0 5.0 0.00 0.00 0.00 75 971.0
20260904083058 67 175 2.0 7.0 0.00 0.00 0.00 75 971.0
20260904082613 67 138 2.0 3.0 0.00 0.00 0.00 79 971.1
20260904082128 67 38 2.0 5.0 0.00 0.00 0.00 79 971.2
20260904081648 67 38 5.0 5.0 0.00 0.00 0.00 79 971.2
20260904081219 67 340 1.0 1.0 0.00 0.00 0.00 79 971.2
20260904080748 67 340 1.0 7.0 0.00 0.00 0.00 79 971.3
20260904080333 67 340 5.0 7.0 0.00 0.00 0.00 79 971.5
20260904075908 67 103 1.0 5.0 0.00 0.00 0.00 79 971.3
20260904075449 67 103 1.0 11.0 0.00 0.00 0.00 79 971.4
20260904075003 66 103 1.0 3.0 0.00 0.00 0.00 79 971.5
20260904074528 66 103 1.0 7.0 0.00 0.00 0.00 79 971.6
20260904074059 66 103 1.0 1.0 0.00 0.00 0.00 79 971.5
20260904073618 66 325 1.0 7.0 0.00 0.00 0.00 79 971.7
20260904073153 66 352 0.0 7.0 0.00 0.00 0.00 79 971.5
20260904072728 66 171 2.0 9.0 0.00 0.00 0.00 80 971.7
20260904072313 66 289 4.0 5.0 0.00 0.00 0.00 80 971.6
20260904071843 65 289 3.0 11.0 0.00 0.00 0.00 81 971.7
20260904071413 65 289 4.0 11.0 0.00 0.00 0.00 81 971.5
20260904070958 65 349 4.0 7.0 0.00 0.00 0.00 81 971.8
20260904070533 65 146 3.0 7.0 0.00 0.00 0.00 81 971.7
20260904070058 65 259 2.0 5.0 0.00 0.00 0.00 81 971.7
20260904065619 65 259 0.0 3.0 0.00 0.00 0.00 81 971.6
20260904065153 64 259 0.0 3.0 0.00 0.00 0.00 81 971.6
20260904064718 64 310 1.0 3.0 0.00 0.00 0.00 81 971.7
20260904064238 64 242 1.0 5.0 0.00 0.00 0.00 81 971.6
20260904063813 62 196 2.0 5.0 0.00 0.00 0.00 81 971.6
20260904063348 62 196 2.0 3.0 0.00 0.00 0.00 82 971.7
20260904062908 62 196 2.0 3.0 0.00 0.00 0.00 85 971.6
20260904062418 62 196 2.0 3.0 0.00 0.00 0.00 85 971.7
20260904061958 61 4 1.0 5.0 0.00 0.00 0.00 85 971.5
20260904061553 61 4 0.0 0.0 0.00 0.00 0.00 85 971.9
20260904061128 61 4 2.0 0.0 0.00 0.00 0.00 85 971.7
20260904060646 60 4 0.0 0.0 0.00 0.00 0.00 87 971.8
20260904060218 60 4 0.0 1.0 0.00 0.00 0.00 87 971.7
20260904055738 60 4 0.0 1.0 0.00 0.00 0.00 87 971.9
20260904055323 60 4 0.0 1.0 0.00 0.00 0.00 84 972.0
20260904054843 60 4 0.0 0.0 0.00 0.00 0.00 87 971.7
20260904054358 60 4 0.0 1.0 0.00 0.00 0.00 88 971.8
20260904053918 60 351 0.0 1.0 0.00 0.00 0.00 88 971.6
20260904053508 59 342 0.0 1.0 0.00 0.00 0.00 88 971.7
20260904053028 59 63 0.0 1.0 0.00 0.00 0.00 90 971.9
20260904052608 59 63 0.0 1.0 0.00 0.00 0.00 90 971.9
20260904052123 59 63 0.0 1.0 0.00 0.00 0.00 90 971.7
20260904051713 59 63 1.0 1.0 0.00 0.00 0.00 90 971.8
20260904051248 59 63 1.0 1.0 0.00 0.00 0.00 90 971.8
20260904050843 59 63 0.0 1.0 0.00 0.00 0.00 90 972.0
20260904050348 59 63 0.0 1.0 0.00 0.00 0.00 90 971.8
20260904045938 59 63 0.0 1.0 0.00 0.00 0.00 90 971.9
20260904045513 59 63 0.0 0.0 0.00 0.00 0.00 90 971.7
20260904045058 59 63 0.0 0.0 0.00 0.00 0.00 90 971.7
20260904044608 59 148 0.0 0.0 0.00 0.00 0.00 90 971.8
20260904044109 59 148 0.0 1.0 0.00 0.00 0.00 90 971.7
20260904043628 59 148 0.0 0.0 0.00 0.00 0.00 94 971.8
20260904043203 59 148 0.0 0.0 0.00 0.00 0.00 94 971.9
20260904042733 59 148 0.0 1.0 0.00 0.00 0.00 94 972.0
20260904042248 58 148 0.0 1.0 0.00 0.00 0.00 94 972.0
20260904041818 58 149 0.0 1.0 0.00 0.00 0.00 94 972.2
20260904041338 59 336 2.0 0.0 0.00 0.00 0.00 94 972.0
20260904040859 59 336 0.0 1.0 0.00 0.00 0.00 94 972.3
20260904040413 59 336 0.0 1.0 0.00 0.00 0.00 94 972.0
20260904035953 59 336 0.0 0.0 0.00 0.00 0.00 93 972.3
20260904035523 59 336 0.0 0.0 0.00 0.00 0.00 91 972.3
20260904035058 60 336 0.0 1.0 0.00 0.00 0.00 88 972.3
20260904034623 60 336 1.0 1.0 0.00 0.00 0.00 88 972.1
20260904034143 60 336 1.0 1.0 0.00 0.00 0.00 88 972.1
20260904033723 60 10 1.0 1.0 0.00 0.00 0.00 88 972.2
20260904033228 60 125 1.0 1.0 0.00 0.00 0.00 88 971.9
20260904032743 60 125 0.0 0.0 0.00 0.00 0.00 88 972.1
20260904032313 60 125 0.0 0.0 0.00 0.00 0.00 88 972.1
20260904031858 59 122 0.0 3.0 0.00 0.00 0.00 97 972.1
20260904031438 59 142 0.0 1.0 0.00 0.00 0.00 97 972.3
20260904031003 59 175 0.0 1.0 0.00 0.00 0.00 97 972.3
20260904030523 59 175 0.0 1.0 0.00 0.00 0.00 97 972.2
20260904030043 59 233 0.0 1.0 0.00 0.00 0.00 97 972.1
20260904025623 59 359 0.0 3.0 0.00 0.00 0.00 97 972.2
20260904025148 59 359 2.0 3.0 0.00 0.00 0.00 97 972.3
20260904024701 57 359 2.0 5.0 0.00 0.00 0.00 97 972.6
20260904024233 57 248 1.0 1.0 0.00 0.00 0.00 97 972.5
20260904023748 57 143 0.0 3.0 0.00 0.00 0.00 97 972.3
20260904023309 57 143 0.0 3.0 0.00 0.00 0.00 97 972.2
20260904022833 57 143 0.0 3.0 0.00 0.00 0.00 97 972.5
20260904022423 57 143 0.0 3.0 0.00 0.00 0.00 97 972.5
20260904021958 57 143 1.0 3.0 0.00 0.00 0.00 97 972.4
20260904021533 57 143 1.0 3.0 0.00 0.00 0.00 97 972.4
20260904021118 57 95 0.0 3.0 0.00 0.00 0.00 97 972.5
20260904020638 57 95 0.0 0.0 0.00 0.00 0.00 97 972.3
20260904020158 57 95 0.0 0.0 0.00 0.00 0.00 97 972.5
20260904015708 57 95 0.0 0.0 0.00 0.00 0.00 97 972.4
20260904015218 57 95 0.0 1.0 0.00 0.00 0.00 97 972.5
20260904014758 57 95 0.0 1.0 0.00 0.00 0.00 97 972.4
20260904014328 57 95 0.0 1.0 0.00 0.00 0.00 97 972.6
20260904013858 57 95 0.0 1.0 0.00 0.00 0.00 97 972.6
20260904013438 57 95 0.0 1.0 0.00 0.00 0.00 97 972.5
20260904013023 57 95 0.0 1.0 0.00 0.00 0.00 97 972.6
20260904012558 57 95 0.0 1.0 0.00 0.00 0.00 97 972.4
20260904012118 57 95 1.0 0.0 0.00 0.00 0.00 97 972.6
20260904011648 57 95 0.0 1.0 0.00 0.00 0.00 97 972.4
20260904011153 57 95 0.0 1.0 0.00 0.00 0.00 97 972.7
20260904010703 57 95 1.0 1.0 0.00 0.00 0.00 97 972.6
20260904010216 57 95 1.0 1.0 0.00 0.00 0.00 96 972.8
20260904005733 57 95 0.0 1.0 0.00 0.00 0.00 96 972.6
20260904005256 57 95 0.0 1.0 0.00 0.00 0.00 96 972.8
20260904004833 57 95 0.0 0.0 0.00 0.00 0.00 96 972.7